Location: Nelson
(41.2830°S, 173.2830°E)
Time: 17:09:44
(UTC+13:00)

MetOp-B - Pass Details

Date: 24 January 2019
Orbit: 820 x 821 km, 98.7° (Epoch: 15 February)

Event Time Altitude Azimuth Distance (km) Brightness Sun altitude
Rises 23:15:57 0° 166° (SSE) 3,392 7.9 -21.0°
Reaches altitude 10° 23:18:19 10° 165° (SSE) 2,452 7.1 -21.3°
Maximum altitude 23:23:47 86° 77° (ENE) 838 4.1 -21.9°
Enters shadow 23:25:59 38° 349° (N) 1,251 4.7 -22.1°
